Ypsilanti, MI

10:25 PM EDT on August 18, 2017 (GMT -0400)
Willow Run

Weather History for KYIP - January, 2013

Change the Weather History Date:

Thursday, January 3, 2013

  Actual Average Record
Temperature  
Mean Temperature 24 °F -  
Max Temperature 32 °F 32 °F 59 °F (1950)
Min Temperature 15 °F 20 °F -6 °F (1979)
Degree Days  
Heating Degree Days 42    
Moisture  
Dew Point 15 °F    
Average Humidity 68    
Maximum Humidity 76    
Minimum Humidity 62    
Precipitation  
Precipitation 0.00 in - - ()
Sea Level Pressure  
Sea Level Pressure 30.14 in    
Wind  
Wind Speed 10 mph (SW)    
Max Wind Speed 15 mph    
Max Gust Speed -    
Visibility 7 miles    
Events      
Averages and records for this station are not official NWS values.
T = Trace of Precipitation, MM = Missing Value Source: NWS Daily Summary

Daily Weather History Graph

Daily Weather History Graph

Search for Another Location

Airport or City:

Trip Planner

Search our weather history database for the weather conditions in past years. The results will help you decide how hot, cold, wet, or windy it might be!

Date:

Astronomy

Jan. 03, 2013 Rise Set
Actual Time 8:03 AM EST 5:14 PM EST
Civil Twilight 7:31 AM EST 5:46 PM EST
Nautical Twilight 6:56 AM EST 6:21 PM EST
Astronomical Twilight 6:22 AM EST 6:55 PM EST
Moon 11:57 PM EST (1/3) 11:06 AM EST (1/3)
Length of Visible Light 10h 14m
Length of Day
9h 11m
Waning Gibbous, 65% of the Moon is Illuminated
Jan 3
Waning Gibbous
Jan 4
Last Quarter
Jan 11
New
Jan 18
First Quarter
Jan 26
Full

Hourly Weather History & Observations

Time (EST) Temp. Windchill Dew Point Humidity Pressure Visibility Wind Dir Wind Speed Gust Speed Precip Events Conditions
12:53 AM 21.9 °F 11.0 °F 15.1 °F 75% 30.18 in 8.0 mi SSW 10.4 mph - N/A   Overcast
1:38 AM 19.4 °F 8.6 °F 10.4 °F 68% 30.15 in 10.0 mi SSW 9.2 mph - N/A   Scattered Clouds
1:53 AM 19.9 °F 8.6 °F 10.0 °F 65% 30.18 in 10.0 mi SW 10.4 mph - N/A   Clear
2:53 AM 16.0 °F 3.6 °F 7.0 °F 68% 30.19 in 10.0 mi SSW 10.4 mph - N/A   Clear
3:53 AM 15.1 °F 3.3 °F 5.0 °F 64% 30.16 in 10.0 mi SSW 9.2 mph - N/A   Mostly Cloudy
4:53 AM 16.0 °F 6.3 °F 6.1 °F 65% 30.15 in 8.0 mi SSW 6.9 mph - N/A   Mostly Cloudy
5:53 AM 16.0 °F 4.4 °F 5.0 °F 62% 30.13 in 9.0 mi SW 9.2 mph - N/A   Overcast
6:53 AM 15.1 °F 4.2 °F 5.0 °F 64% 30.13 in 8.0 mi SW 8.1 mph - N/A   Overcast
7:53 AM 16.0 °F 4.4 °F 6.1 °F 65% 30.12 in 8.0 mi SW 9.2 mph - N/A   Overcast
8:53 AM 16.0 °F 3.6 °F 6.1 °F 65% 30.12 in 7.0 mi SW 10.4 mph - N/A   Overcast
9:53 AM 18.0 °F 6.9 °F 8.1 °F 65% 30.12 in 8.0 mi SSW 9.2 mph - N/A   Overcast
10:36 AM 21.2 °F 10.1 °F 10.4 °F 63% 30.11 in 8.0 mi SW 10.4 mph - N/A   Overcast
10:53 AM 21.9 °F 11.0 °F 12.0 °F 66% 30.13 in 8.0 mi SW 10.4 mph - N/A   Overcast
11:09 AM 21.2 °F 10.1 °F 12.2 °F 68% 30.10 in 8.0 mi WSW 10.4 mph - N/A   Overcast
11:53 AM 23.0 °F 12.4 °F 12.9 °F 65% 30.11 in 8.0 mi SW 10.4 mph - N/A   Overcast
12:53 PM 25.0 °F 12.6 °F 16.0 °F 69% 30.09 in 7.0 mi SW 15.0 mph - N/A   Overcast
1:53 PM 27.0 °F 16.7 °F 18.0 °F 69% 30.08 in 6.0 mi SW 11.5 mph - N/A   Overcast
2:53 PM 28.0 °F 18.6 °F 19.9 °F 72% 30.09 in 5.0 mi SW 10.4 mph - N/A   Overcast
3:53 PM 30.0 °F 21.1 °F 23.0 °F 75% 30.11 in 4.0 mi WSW 10.4 mph - N/A   Overcast
4:53 PM 30.9 °F 20.2 °F 24.1 °F 76% 30.12 in 4.0 mi WSW 15.0 mph - N/A   Overcast
5:53 PM 30.9 °F 22.8 °F 24.1 °F 76% 30.14 in 5.0 mi WSW 9.2 mph - N/A   Haze
6:53 PM 32.0 °F 23.0 °F 24.1 °F 73% 30.16 in 5.0 mi WSW 11.5 mph - N/A   Haze
7:53 PM 32.0 °F 23.6 °F 24.1 °F 73% 30.17 in 6.0 mi WSW 10.4 mph - N/A   Haze
8:53 PM 32.0 °F 23.0 °F 24.1 °F 73% 30.18 in 6.0 mi West 11.5 mph - N/A   Haze
9:53 PM 32.0 °F 23.6 °F 21.9 °F 66% 30.18 in 8.0 mi West 10.4 mph - N/A   Overcast
10:20 PM 32.0 °F 24.8 °F 21.2 °F 64% 30.16 in 8.0 mi West 8.1 mph - N/A   Overcast
10:53 PM 32.0 °F 24.2 °F 21.9 °F 66% 30.18 in 8.0 mi West 9.2 mph - N/A   Overcast
11:01 PM 30.2 °F 22.6 °F 21.2 °F 69% 30.15 in 8.0 mi West 8.1 mph - N/A   Overcast
11:53 PM 30.9 °F 23.5 °F 23.0 °F 72% 30.17 in 7.0 mi SW 8.1 mph - N/A   Overcast